{"data":{"norad_id":57504,"epoch":"2026-05-25T03:29:44.854656Z","epoch_age_seconds":55607,"freshness":"FRESH","line1":"1 57504U 23113K   26145.14565804  .00001118  00000+0  50129-4 0  9993","line2":"2 57504  42.9985 304.6603 0001028 276.5081  83.5653 15.27577067155369","mean_motion":15.27577067,"eccentricity":0.0001028,"inclination_deg":42.9985,"raan_deg":304.6603,"arg_perigee_deg":276.5081,"mean_anomaly_deg":83.5653,"bstar":5.0129e-5,"rev_number":15536,"period_min":94.26692970902,"perigee_km":482.35254767734,"apogee_km":483.76320934436,"semimajor_km":6861.1948785108,"source":"CELESTRAK","updated_at":"2026-05-25T13:38:18.328559Z"}}